Lapse_Rate
5.6 5.5 5.8 5.7 5.9 6.1 6.2 6.4 6.5 6.5 6.7 6.8 6.8 6.9 6.8 6.8 6.9 6.8 6.8 6.8 6.7 6.8 6.8 6.9 7.0 7.0 6.9 6.9 7.0 6.9 6.8 6.9 7.3 8.0 8.4 8.2 8.2 8.3 8.7 8.7 8.8 9.1 9.2 9.4 9.1 8.8 8.6
5.9 5.7 5.5 5.5 5.6 5.8 6.0 6.2 6.4 6.5 6.5 6.9 6.9 6.9 6.9 7.0 6.9 6.8 6.8 6.7 6.7 6.7 6.8 6.9 7.0 6.9 6.8 7.0 7.1 7.0 6.9 6.8 7.3 8.0 8.0 8.0 8.1 8.3 8.6 8.6 8.7 9.0 9.2 9.2 9.0 8.6 8.3
5.5 5.6 5.8 5.6 5.6 5.6 5.8 6.1 6.1 6.3 6.6 6.7 6.9 7.0 7.1 7.2 6.9 6.7 6.8 6.6 6.6 6.6 6.7 6.9 7.0 6.8 6.9 6.9 7.0 6.9 6.8 6.9 7.3 7.8 7.9 7.9 8.0 8.1 8.4 8.4 8.5 8.7 8.8 9.0 8.9 8.5 8.2
5.4 5.6 5.6 5.6 5.7 5.6 5.5 5.7 6.0 6.1 6.3 6.4 6.6 6.9 6.9 7.0 6.8 6.8 6.8 6.6 6.5 6.4 6.7 6.9 7.0 6.9 6.9 7.0 6.8 6.8 6.7 6.9 7.4 7.7 7.8 8.0 8.1 8.1 8.3 8.3 8.4 8.8 8.7 8.8 8.7 8.3 7.9
5.4 5.3 5.4 5.5 5.7 5.7 5.6 5.5 5.8 5.9 6.1 6.2 6.4 6.6 6.6 6.8 6.8 6.8 6.7 6.5 6.4 6.4 6.6 6.8 7.0 6.8 7.0 6.9 6.9 6.9 6.7 7.0 7.4 7.6 7.9 8.0 8.1 8.0 8.2 8.3 8.3 8.5 8.7 8.7 8.7 8.3 8.1
5.6 5.5 5.4 5.5 5.5 5.7 5.6 5.6 5.6 5.9 5.9 6.0 6.1 6.2 6.4 6.4 6.5 6.8 6.6 6.6 6.2 6.4 6.6 6.8 7.0 6.9 7.0 6.9 6.8 6.9 6.8 7.0 7.5 7.6 7.9 8.0 8.2 8.1 8.1 8.2 8.5 8.5 8.5 8.6 8.6 8.7 8.7
5.6 5.4 5.6 5.5 5.5 5.6 5.6 5.6 5.6 5.6 5.9 5.9 6.0 6.1 6.2 6.3 6.3 6.5 6.2 6.4 5.9 6.2 6.6 6.9 7.0 7.0 6.8 6.8 6.8 6.6 6.7 7.1 7.5 7.7 7.9 8.1 8.2 8.1 8.3 8.9 9.0 9.0 8.6 8.4 8.7 8.4 8.5
5.8 6.0 5.8 5.5 5.5 5.5 5.5 5.8 5.6 5.7 5.8 5.7 5.8 6.1 6.1 6.1 6.2 6.4 6.1 5.8 5.9 6.2 6.5 6.9 6.9 7.3 6.6 6.5 6.7 6.5 6.6 7.1 7.5 7.7 7.9 8.0 8.0 7.9 8.1 8.5 8.3 8.6 8.4 8.5 8.4 8.2 8.4
4.3 5.0 6.0 6.1 5.7 5.4 5.5 5.5 5.8 5.8 5.8 5.8 5.9 5.8 6.1 6.1 6.2 6.3 6.0 5.3 5.6 5.8 5.8 7.4 7.0 7.5 6.9 6.4 6.7 6.7 6.7 7.1 7.4 7.6 7.9 7.9 7.7 7.6 7.6 7.9 8.0 8.1 8.3 8.4 8.1 8.3 8.5
4.6 4.3 4.6 5.7 6.1 5.9 5.6 5.5 5.6 5.9 5.9 5.8 5.9 5.9 5.9 5.9 6.1 6.0 5.7 5.2 5.3 5.5 5.5 6.9 7.6 7.6 7.1 6.7 6.7 6.6 6.8 6.9 7.3 7.6 7.8 7.8 7.9 7.7 7.5 7.6 7.9 8.0 8.0 7.9 8.0 8.2 8.1
4.7 4.8 4.6 4.6 5.5 6.0 5.9 5.9 5.6 5.7 6.0 6.0 6.0 5.8 5.8 5.9 6.3 5.8 5.2 5.2 5.2 5.4 4.4 6.8 6.8 7.0 7.2 6.9 7.0 6.6 6.7 6.7 7.3 7.7 7.7 7.8 7.9 7.8 7.8 7.7 7.7 7.9 7.8 7.8 8.1 8.4 8.2
5.7 5.3 5.0 4.9 4.7 5.4 6.0 6.0 6.0 5.8 5.7 6.2 6.2 5.8 5.9 5.7 6.3 5.3 5.0 4.9 5.2 5.4 4.3 6.6 6.5 6.7 7.1 6.7 6.8 6.9 6.8 6.8 7.1 7.4 7.7 7.8 7.8 7.7 7.8 7.8 7.8 7.7 7.9 7.9 8.1 8.0 7.3
7.0 6.7 5.7 5.3 5.0 4.9 5.6 6.1 6.1 6.1 6.0 6.1 6.3 6.2 5.9 6.2 6.8 4.9 4.7 4.9 5.0 4.4 6.3 6.6 6.6 6.6 6.9 6.9 6.7 6.8 6.9 6.8 6.8 7.1 7.6 7.7 7.7 7.4 7.5 7.7 7.9 8.0 8.4 7.8 7.0 6.4 6.7
6.6 6.9 7.2 6.4 5.5 4.8 5.0 5.5 6.1 6.2 6.3 6.5 6.4 6.3 6.3 6.5 6.9 5.3 4.9 4.6 4.4 5.0 6.8 6.7 6.6 6.7 6.8 7.0 6.7 6.6 6.8 6.7 6.8 7.2 7.7 7.7 7.7 7.4 7.8 8.0 8.0 8.2 8.3 8.3 7.6 6.2 6.5
6.4 6.4 6.8 7.2 6.7 5.6 4.9 5.0 5.2 6.1 6.4 6.5 6.6 6.3 6.4 6.9 7.4 5.9 5.5 4.5 4.4 5.0 6.7 6.8 6.8 6.6 6.6 6.8 6.8 6.6 6.7 6.8 6.9 7.3 7.6 7.7 7.8 7.8 7.8 7.9 8.1 8.4 8.5 8.5 8.1 7.1 6.7
6.0 6.2 6.3 6.7 6.7 6.7 5.7 4.8 4.2 4.6 6.2 6.3 6.6 6.3 6.7 7.4 7.4 5.9 5.4 4.3 4.2 5.3 6.6 6.9 6.7 6.9 7.1 6.9 6.8 6.7 6.7 6.9 7.1 7.4 7.7 7.8 8.0 8.2 7.8 7.8 7.8 8.1 8.2 8.3 8.3 7.6 7.1
6.0 5.6 5.6 6.1 6.7 6.5 6.4 5.6 4.2 3.9 4.4 5.7 5.8 6.2 6.8 7.5 7.2 6.3 4.5 4.0 4.1 5.7 6.2 6.5 6.8 7.0 7.1 7.2 7.0 7.1 7.1 7.2 7.2 7.3 7.4 7.8 8.0 8.1 8.2 7.8 8.2 8.4 8.2 8.1 8.0 8.0 6.8
6.2 6.1 5.5 5.6 6.3 6.4 6.3 6.4 5.2 3.9 3.8 4.4 4.6 5.3 6.9 7.3 6.6 4.8 4.0 4.2 4.1 6.0 5.9 6.0 6.5 7.0 7.2 7.3 7.2 7.1 7.0 7.3 7.5 7.5 7.6 7.7 8.0 8.0 8.2 8.3 8.4 8.4 8.2 8.2 8.1 7.5 7.9
6.1 6.2 6.1 5.6 6.0 5.9 6.2 6.3 5.8 4.6 4.4 4.3 4.8 4.6 6.0 6.8 6.5 5.4 3.6 4.3 4.5 6.2 6.2 6.2 6.2 6.7 7.0 7.4 7.3 7.4 7.4 7.5 7.6 7.6 7.6 7.8 7.5 7.8 8.0 8.3 8.2 8.1 8.5 8.4 8.1 8.0 8.0
6.2 6.2 6.2 5.8 5.8 6.0 6.1 6.1 6.2 5.4 4.9 4.7 5.0 4.7 6.0 6.1 6.7 5.9 4.0 4.2 4.5 6.1 6.2 6.0 6.6 6.7 6.8 7.1 7.4 7.5 7.6 7.6 7.6 7.7 7.8 8.0 7.9 8.0 7.8 8.5 8.9 8.9 8.6 8.5 8.0 7.9 8.1
6.7 6.4 6.4 5.9 5.8 6.0 6.0 5.9 5.9 5.9 5.1 5.4 5.3 4.8 5.5 5.5 6.1 5.0 4.2 4.2 4.7 5.9 6.0 6.2 6.5 6.7 6.8 7.1 7.5 7.4 7.9 7.8 7.7 7.8 8.0 8.0 8.1 8.4 8.6 8.9 9.0 8.8 8.8 8.6 8.3 8.5 8.1
6.9 6.5 6.5 6.3 6.1 5.9 6.2 6.1 5.7 6.2 5.8 5.9 6.0 4.9 5.5 5.6 6.8 5.2 4.0 3.4 3.9 6.7 5.9 6.2 5.7 7.2 7.3 7.2 7.7 7.7 7.9 7.9 8.1 8.3 8.4 8.4 8.3 8.5 8.6 8.7 8.6 8.7 8.7 8.4 8.3 8.2 8.0
7.1 6.6 6.5 6.3 6.1 6.0 6.0 6.0 5.8 5.6 6.2 5.7 6.1 5.0 5.7 5.2 6.0 5.4 4.5 4.0 4.2 6.9 5.9 6.4 7.1 7.6 7.5 7.7 8.1 7.8 7.5 7.5 7.5 7.2 8.4 8.7 8.6 8.5 8.4 8.6 8.5 8.2 8.2 8.3 8.3 8.2 8.1
7.1 6.8 6.5 6.3 6.2 6.1 5.9 5.9 5.9 5.6 6.4 6.1 5.7 5.5 5.5 5.4 5.7 5.7 5.1 4.1 4.6 7.0 6.3 6.9 7.1 7.8 7.4 8.1 8.0 8.0 7.6 7.4 7.5 7.8 7.9 8.1 8.5 8.6 8.6 8.0 5.8 8.0 8.0 8.0 7.9 7.9 7.8
7.2 6.7 6.6 6.4 6.3 6.0 5.9 6.1 5.9 5.5 5.7 6.5 5.9 5.8 5.8 5.5 5.5 5.3 4.9 4.1 4.4 7.0 6.2 6.7 7.3 7.2 7.4 6.9 7.6 7.8 7.4 7.4 7.6 8.2 7.9 8.1 8.6 8.4 8.2 7.8 8.1 7.6 7.8 8.0 8.0 7.8 7.6
6.9 6.4 6.5 6.4 6.2 5.9 6.0 6.2 5.5 5.5 5.7 6.7 6.1 5.8 6.1 5.9 5.5 5.5 4.9 4.6 4.5 6.8 6.3 7.2 6.8 7.2 7.2 7.2 6.1 6.7 7.5 7.4 7.8 8.4 8.0 7.7 8.3 8.6 7.7 7.7 5.4 8.0 8.1 7.8 7.6 7.2 7.7
6.5 6.4 6.3 6.3 6.1 6.0 6.0 6.1 5.6 5.4 5.8 6.1 6.5 6.1 6.4 6.1 5.6 5.5 5.0 5.0 4.9 6.4 6.9 7.3 7.5 7.4 7.4 6.7 6.6 6.7 7.1 7.4 7.7 8.2 7.9 7.8 7.9 7.9 8.1 7.7 7.7 7.9 7.9 7.9 7.3 8.1 7.7
6.4 6.3 6.2 6.1 6.3 6.1 6.0 6.1 5.5 5.2 5.8 6.2 6.5 6.2 6.4 6.2 5.8 5.8 5.4 5.3 5.7 6.8 7.1 7.0 7.3 7.1 7.1 6.8 6.6 6.7 7.1 7.6 7.5 7.8 8.1 8.3 8.1 7.7 7.7 7.4 6.7 8.0 8.0 7.8 8.0 7.5 7.4
6.5 6.2 6.1 6.2 6.0 6.1 6.1 5.8 5.2 5.5 6.1 6.6 7.0 7.5 6.2 6.1 5.9 6.0 5.8 5.6 6.2 7.0 7.5 7.0 7.3 7.6 7.6 6.9 6.6 6.7 7.2 7.5 7.5 7.6 7.7 7.8 8.0 8.1 8.0 7.8 8.0 8.1 8.1 8.0 7.9 7.3 7.2
Wind_Speed
21 20 19 18 19 18 18 17 16 17 19 20 19 18 17 15 15 15 16 17 18 17 16 16 17 18 7 4 8 3 7 13 9 5 3 2 3 3 1 3 2 2 4 2 3 6 5
23 22 20 20 18 19 19 18 17 17 19 20 20 20 19 16 16 16 17 18 18 18 16 14 14 15 3 5 3 3 6 2 6 4 2 3 2 4 3 3 1 1 4 1 3 2 2
23 23 22 22 20 20 18 18 17 17 17 19 20 21 20 17 16 17 17 19 20 19 16 12 9 2 2 14 2 9 5 3 5 5 3 4 3 2 1 2 5 2 4 4 2 1 2
23 23 23 22 22 21 21 18 17 16 16 18 19 20 20 19 16 17 18 22 23 20 16 10 2 1 7 5 6 9 3 5 5 5 3 3 3 2 2 1 4 3 4 4 1 2 2
28 24 24 23 22 21 21 22 18 16 17 17 19 21 21 20 17 16 18 24 25 16 5 5 3 2 10 7 3 7 7 4 4 3 4 2 2 2 5 4 4 5 1 2 4 5 2
31 30 26 24 23 21 22 22 20 17 17 17 18 18 21 19 16 14 17 26 13 0 2 3 1 1 6 2 3 4 4 4 3 1 1 3 5 3 3 4 2 2 2 2 4 4 3
34 31 28 28 26 23 24 21 22 19 17 17 17 17 19 17 12 8 7 4 4 2 3 8 5 4 5 8 3 3 2 6 3 5 2 2 4 3 7 5 8 5 4 2 4 6 3
33 32 30 30 30 27 25 23 23 20 18 17 18 14 18 14 8 3 2 3 3 2 7 11 15 8 6 3 4 5 4 5 4 5 2 4 3 4 3 2 4 2 2 4 6 2 5
34 34 31 32 27 29 26 24 22 21 18 18 18 13 14 13 3 0 3 6 2 3 4 8 6 6 6 9 8 7 7 5 4 5 5 5 5 4 5 4 3 3 4 3 5 3 2
36 35 33 32 31 28 30 26 23 22 20 18 18 13 10 7 1 3 4 1 8 5 3 7 5 7 6 8 4 8 7 6 2 9 7 4 3 4 4 5 6 5 5 3 4 0 1
38 37 35 32 32 28 28 27 26 23 21 19 18 14 11 12 2 2 1 8 1 0 3 3 4 3 7 10 6 7 5 4 8 6 6 6 4 4 4 6 5 8 4 5 3 1 3
40 39 37 36 32 30 25 29 25 23 19 20 17 16 9 4 2 5 10 7 1 2 7 3 6 7 6 3 2 4 4 4 4 5 1 4 3 5 6 3 5 0 3 4 4 3 1
42 41 39 37 36 33 29 26 28 22 20 20 19 17 7 4 2 1 3 0 3 5 3 4 5 6 5 6 3 5 7 7 6 5 3 2 3 2 3 1 1 3 5 3 4 3 5
42 42 41 39 36 35 31 27 29 24 20 20 20 16 7 10 4 2 2 3 10 5 6 4 2 5 8 6 5 5 7 7 3 5 4 6 4 6 3 4 4 1 5 4 2 2 4
42 42 42 40 37 35 33 31 28 27 25 20 18 2 4 4 11 2 2 10 6 7 4 3 3 5 5 5 6 5 7 9 9 8 7 5 5 2 2 2 3 2 2 3 6 2 2
41 40 41 41 39 36 34 32 31 30 26 22 6 3 9 12 16 3 3 17 7 4 3 3 7 5 9 7 6 8 8 5 6 10 4 8 0 1 2 3 1 1 6 3 3 1 4
38 39 40 41 40 37 35 33 33 33 30 24 5 4 4 20 8 5 12 12 12 10 3 3 2 3 7 8 8 6 10 3 8 6 5 5 5 3 1 5 7 3 1 4 4 4 4
39 38 37 39 40 38 37 35 35 35 32 19 5 8 5 15 12 7 14 8 8 14 2 3 3 4 5 7 6 7 10 8 9 11 9 6 5 5 9 1 4 5 8 6 4 4 1
38 39 38 39 38 39 38 37 37 34 36 11 5 6 11 13 13 17 11 11 4 8 6 4 4 4 2 3 5 6 7 5 9 8 9 8 1 1 7 5 3 3 4 4 5 3 7
38 39 40 39 40 37 38 39 40 37 38 13 5 8 5 11 17 19 19 14 21 5 9 1 4 3 2 2 4 5 7 2 7 7 7 7 4 7 9 8 5 4 6 6 6 4 4
28 38 40 40 42 40 38 39 40 43 40 15 6 7 6 12 18 19 21 15 19 17 11 8 4 5 2 2 2 4 2 2 2 5 5 6 7 6 5 4 6 6 5 8 7 6 7
29 25 40 40 42 41 40 38 41 44 41 14 5 5 3 8 19 23 15 23 25 21 8 10 7 6 6 4 4 4 2 1 4 5 7 2 5 4 4 1 0 3 7 8 5 3 5
33 26 32 39 43 42 41 36 39 44 29 5 4 3 3 10 19 18 25 23 21 18 19 6 18 13 6 15 9 3 3 3 4 2 6 8 7 4 4 2 4 5 8 9 7 6 8
33 30 28 41 44 42 40 39 38 41 33 4 3 3 5 6 12 23 23 20 22 21 9 20 13 4 5 3 1 1 4 3 6 3 5 6 6 3 4 2 1 7 1 4 8 5 5
32 30 29 43 44 41 40 39 38 39 37 7 1 2 4 4 12 12 17 23 16 14 15 7 9 11 3 5 2 1 4 5 1 4 3 2 5 3 5 4 4 4 4 7 8 9 7
29 26 36 44 43 40 40 40 36 34 35 15 5 2 2 2 9 11 17 17 17 12 7 9 8 5 5 3 2 4 5 5 5 2 4 4 6 4 3 5 8 8 4 5 4 6 7
21 30 42 42 40 39 39 39 37 32 35 15 7 5 2 1 3 11 14 15 14 7 3 5 9 4 6 3 2 4 5 6 5 9 6 3 3 5 2 3 7 7 3 5 5 8 7
31 41 39 39 38 39 39 36 32 31 34 13 8 3 5 2 4 4 2 8 8 13 6 3 7 1 3 5 4 4 3 6 4 4 6 7 7 3 3 2 6 8 4 9 7 0 6
38 37 36 36 36 36 33 30 29 30 34 16 4 9 9 2 3 1 4 4 14 16 10 3 5 6 6 4 2 3 1 1 4 4 2 3 5 6 9 7 3 6 4 2 4 5 7
Wind_Direction
290 289 282 282 290 296 299 299 302 302 299 285 272 274 279 285 293 301 308 314 315 316 319 327 330 331 343 346 252 296 70 103 114 128 151 200 144 137 282 249 291 222 319 40 190 147 88
287 287 288 281 278 284 290 294 300 301 296 296 287 274 276 283 291 297 303 309 309 308 310 320 325 329 318 287 266 130 39 250 141 142 203 222 214 197 252 265 44 101 33 74 71 161 90
271 277 282 283 275 274 275 281 288 294 297 296 296 283 273 279 286 293 301 304 302 300 300 305 313 321 287 242 312 311 304 214 181 162 203 218 213 133 21 349 146 108 40 0 3 48 12
272 272 269 278 281 275 277 272 278 289 294 296 294 291 281 278 284 293 301 302 299 297 292 279 214 158 250 251 291 297 196 277 210 211 217 236 179 206 162 332 26 75 44 6 0 154 338
271 262 268 267 273 279 277 274 271 280 289 291 293 292 289 281 282 293 303 302 299 303 253 153 117 155 266 314 274 262 174 208 161 197 205 202 195 91 14 81 22 14 233 241 339 229 95
284 270 257 266 266 266 275 271 263 268 279 285 291 290 289 282 280 296 309 302 290 317 127 171 243 347 269 238 288 291 181 192 182 290 86 68 55 53 35 72 198 202 144 19 300 228 174
274 276 287 257 260 263 263 272 263 261 270 276 281 291 289 285 282 305 349 347 331 250 214 205 187 240 282 298 283 260 164 128 108 59 143 348 73 215 233 210 181 164 173 201 290 315 235
268 268 272 279 261 255 259 261 267 253 259 270 274 280 286 291 286 311 59 269 246 168 303 236 243 251 266 63 307 273 149 127 122 205 111 29 250 208 167 206 251 128 34 279 286 278 189
258 261 264 264 270 261 251 256 261 255 248 263 267 273 282 293 260 132 211 231 342 344 258 281 203 205 198 151 209 252 161 141 150 157 187 161 227 129 166 201 232 254 214 257 251 322 203
252 253 255 257 255 265 254 245 254 258 248 252 267 266 277 293 211 157 238 265 297 192 308 265 227 254 161 156 239 203 204 144 125 196 158 229 260 211 191 225 160 257 211 218 274 351 281
246 245 250 250 255 250 259 240 243 248 247 241 254 256 266 200 356 211 199 333 303 306 314 215 184 152 157 172 152 210 193 70 162 174 128 240 179 183 194 220 158 238 165 226 216 121 50
245 241 242 245 244 244 247 250 225 236 245 240 241 247 246 181 201 255 312 327 56 69 246 295 142 173 149 242 173 110 147 68 136 121 330 227 177 160 204 209 174 58 140 53 51 84 81
244 239 235 236 240 240 236 240 229 217 235 243 233 236 206 204 211 213 282 187 189 209 323 215 182 151 180 175 201 143 160 163 151 129 195 321 214 232 186 81 67 121 59 352 1 19 220
243 238 233 230 231 234 231 229 231 207 230 230 234 227 226 227 236 298 206 184 221 211 242 315 146 113 181 154 219 172 140 171 261 108 132 172 302 176 186 178 193 90 135 151 254 224 272
243 237 230 225 224 226 225 223 223 219 207 219 224 198 219 209 211 153 222 213 205 201 220 245 100 134 218 209 155 140 188 183 184 170 158 147 263 140 210 118 141 196 114 164 105 40 38
239 236 228 220 218 218 220 218 208 208 195 201 210 183 231 186 177 179 194 226 210 228 348 335 211 175 179 198 150 162 177 198 192 185 165 199 194 272 158 167 101 190 156 74 14 191 269
236 233 228 216 211 211 212 211 203 201 190 191 193 197 225 181 158 200 207 217 219 265 342 301 290 241 201 172 168 180 193 220 187 179 130 142 129 271 292 187 186 134 181 66 121 140 179
232 229 226 214 206 205 203 204 202 194 190 178 188 206 180 152 190 216 219 202 233 243 286 279 275 260 206 176 153 181 188 199 175 151 160 197 146 185 205 301 162 172 189 153 141 207 153
228 224 221 215 200 198 197 198 195 185 190 182 197 189 171 168 191 211 200 193 239 227 222 239 262 242 301 186 171 183 197 217 147 147 160 183 175 76 340 359 17 192 200 138 110 78 188
224 221 216 212 195 192 193 192 194 181 193 185 162 166 206 193 219 202 195 195 206 214 246 181 286 290 288 307 218 203 206 200 173 191 125 109 142 165 206 214 157 191 198 176 148 132 187
230 224 211 208 191 188 187 189 191 186 186 189 194 199 193 184 208 209 194 195 192 213 204 164 263 237 167 244 19 171 152 112 110 161 139 147 191 179 223 196 181 206 203 169 193 190 172
219 220 206 200 187 183 182 186 189 189 177 201 170 188 195 178 203 198 200 204 199 205 174 211 222 209 210 235 190 84 81 161 198 197 156 194 203 140 191 29 86 213 228 186 199 180 250
214 208 215 195 182 179 179 182 186 184 169 183 224 276 184 208 182 189 211 199 195 194 225 183 207 226 239 230 248 257 252 241 220 209 194 152 139 120 226 29 91 328 227 209 208 193 173
210 203 207 190 175 175 176 181 187 189 179 129 183 224 188 191 195 204 193 190 195 205 200 216 226 190 238 251 341 50 33 44 183 143 164 145 118 97 169 56 168 243 305 286 228 239 221
202 204 204 178 168 170 175 177 181 184 179 160 138 236 181 221 194 199 188 200 189 211 219 224 227 223 215 12 18 139 337 4 23 25 143 146 125 108 143 189 290 287 203 175 184 261 194
190 192 189 164 163 169 175 176 180 180 177 182 208 28 345 234 208 176 190 188 200 208 221 228 265 141 83 112 115 228 199 195 201 121 66 71 68 124 149 154 206 230 241 148 106 276 194
195 185 160 158 161 168 171 174 180 176 178 178 195 177 308 229 275 165 187 187 186 172 159 162 190 236 148 160 194 178 223 171 182 166 173 68 23 154 132 198 285 248 193 130 128 241 170
168 148 150 153 159 164 165 168 167 170 169 161 184 195 218 188 286 305 146 156 173 197 176 196 137 230 74 167 160 212 163 206 138 207 181 160 152 172 92 77 268 168 92 167 211 260 144
132 140 146 154 161 162 164 166 163 166 163 152 157 215 251 174 302 294 268 277 198 204 176 216 178 169 179 148 156 107 161 142 146 212 235 227 186 182 182 209 228 210 195 245 174 154 172